[[{"header":{"parameterUnit":"m.s-1","parameterCategory":1,"la1":30.2991,"la2":30.254,"lo1":-89.0895,"lo2":-89.0444,"dy":0.0017,"dx":0.0017,"nx":28,"ny":28,"refTime":"2025-04-14T03:00:00:Z","depth":0,"parameterNumber":2,"parameterNumberName":"U-component_of_WINDS"},"data":[0,0,0,0,0,0,0,0,0,0,0,0,0,0,0,0,0,0,0,0,0,0,0,0,0,0,0,0,0,0,0,0,0,0,0,0,0,0,0,0,0,0,0,0,0,0,0,0,0,0,0,0,0,0,0,0,0,0,4.4371,4.4373,0,4.4562,4.4565,4.4567,4.4527,4.4523,4.452,4.4516,4.4717,4.4726,4.4734,0,0,0,0,0,0,0,0,0,0,0,0,0,4.3977,4.3985,4.4371,4.4374,4.4376,4.4562,4.4565,4.4567,4.4527,4.4523,4.4519,4.4515,4.4714,4.4725,4.4735,0,0,0,0,0,0,0,0,0,0,0,0,0,4.4156,4.3987,4.4371,4.4378,4.4381,4.4561,4.4565,4.4568,4.4528,4.4523,4.4518,4.4513,4.4711,4.4724,4.4736,4.4923,0,0,4.4776,4.4782,0,0,0,0,0,0,0,0,4.4146,4.4171,4.4375,4.4378,4.4381,4.4515,4.4499,4.4687,4.453,4.4473,4.4516,4.451,4.4655,4.4672,4.472,4.4932,4.4941,4.4777,4.4785,4.4791,4.4794,0,0,0,0,0,0,0,4.4134,4.4162,4.4447,4.4378,4.4382,4.4374,4.4394,4.4535,4.4591,4.4477,4.4475,4.4497,4.4655,4.4707,4.4724,4.4944,4.4777,4.4788,4.4796,4.4802,4.5321,4.5327,0,0,0,0,0,0,4.4118,4.4152,4.4441,4.4453,4.4248,4.4385,4.4407,4.4478,4.459,4.4601,4.4502,4.4495,4.4688,4.4709,4.4731,4.4958,4.4791,4.4803,4.481,4.5315,4.5323,4.5329,0,0,0,0,0,0,4.411,4.4144,4.4433,4.4302,4.4338,4.4398,4.4477,4.4484,4.4536,4.4608,4.4619,4.4544,4.4684,4.4713,4.4876,4.4965,4.4809,4.482,4.5308,4.5318,4.5326,4.5413,0,0,0,0,0,0,4.4098,4.4141,4.4211,4.4304,4.4345,4.4573,4.4483,4.4492,4.4558,4.4551,4.4651,4.4662,4.4682,4.4856,4.4888,4.498,4.4831,4.5301,4.5312,4.5323,4.5403,4.5424,4.5443,0,0,0,0,0,4.4084,4.4229,4.4215,4.425,4.4434,4.4578,4.4602,4.4621,4.4565,4.4637,4.4684,4.4659,4.4949,4.4873,4.4909,4.5006,4.5295,4.5309,4.5322,4.5394,4.542,4.5442,0,0,0,0,0,0,4.4148,4.4242,4.4227,4.4406,4.4484,4.4571,4.4663,4.4648,4.4746,4.4735,4.4756,4.4779,4.4945,4.4991,4.4905,4.5193,4.5114,4.5136,4.5157,4.5182,4.5202,4.5188,4.4841,0,0,0,0,0,4.4182,4.429,4.4367,4.4517,4.4557,4.4603,4.4667,4.4674,4.4757,4.4791,4.4849,4.4932,4.5042,4.5114,4.5219,4.5409,4.5431,4.5493,4.5513,4.5529,4.5548,4.5653,4.5682,4.5374,4.5373,4.5373,0,0,4.4256,4.432,4.4387,4.4532,4.4593,4.4706,4.4632,4.4754,4.4839,4.481,4.4968,4.5013,4.5107,4.5285,4.5366,4.5328,4.5637,4.5546,4.5558,4.5569,4.567,4.5699,4.5725,4.5383,4.5381,4.538,0,0,4.4447,4.4505,4.4638,4.4701,4.4795,4.4824,4.4856,4.4946,4.4975,4.5132,4.5113,4.5215,4.5404,4.5472,4.5531,4.5748,4.573,4.5782,4.5887,4.5989,4.6014,4.6035,4.6115,4.6143,4.58,4.58,4.58,0,4.4527,4.4694,4.4708,4.4833,4.4898,4.4875,4.5011,4.5071,4.5196,4.5242,4.5198,4.5434,4.5496,4.569,4.5742,4.5791,4.5829,4.5772,4.6008,4.603,4.6051,4.6127,4.6157,4.5806,4.5805,4.5805,4.5804,0,4.4789,4.4906,4.5002,4.512,4.5196,4.5325,4.5361,4.5436,4.5437,4.5472,4.5634,4.5706,4.5826,4.5872,4.5875,4.6067,4.6041,4.6003,4.5925,4.6086,4.6158,4.6187,4.5814,4.5812,4.5811,4.5809,0,0,4.5028,4.5151,4.5187,4.5241,4.5342,4.5434,4.5563,4.5678,4.5743,4.5829,4.594,4.61,4.6064,4.6132,4.6142,4.6231,4.6401,4.6182,4.6185,4.6222,4.662,4.665,4.6684,4.6388,4.6394,4.6398,4.6613,0,4.523,4.5456,4.5472,4.5677,4.5786,4.5765,4.5878,4.5953,4.5989,4.6088,4.6129,4.6242,4.6186,4.6227,4.6314,4.6362,4.6482,4.6346,4.6494,4.6499,4.6473,4.6721,4.6753,4.6952,4.6641,4.6646,4.6649,0,4.5497,4.559,4.5805,4.5891,4.5938,4.6038,4.6146,4.624,4.6326,4.6346,4.6421,4.6418,4.6553,4.6468,4.6655,4.6563,4.6624,4.6656,4.6664,4.6681,4.6585,4.6746,4.7016,4.7047,4.6693,4.669,4.6686,0,4.5653,4.5831,4.5983,4.603,4.6134,4.6205,4.6252,4.6332,4.6401,4.6496,4.6541,4.665,4.6711,4.6797,4.6825,4.676,4.7012,4.6929,4.7034,4.7034,4.709,4.7087,4.7376,4.7126,4.7125,4.7125,4.7124,0,4.5879,4.6012,4.6054,4.6148,4.6297,4.6315,4.6462,4.6505,4.6577,4.668,4.6669,4.6766,4.6796,4.69,4.6922,4.7075,4.7102,4.7124,4.7129,4.7126,4.7124,4.7168,4.7156,4.7133,4.7131,4.7129,4.7128,0,4.6079,4.6112,4.6277,4.6361,4.6386,4.6492,4.6565,4.6657,4.6689,4.6821,4.6852,4.6906,4.7027,4.7062,4.7209,4.7224,4.7404,4.7395,4.7375,4.7376,4.748,4.7471,4.781,4.7856,4.7573,4.7576,4.7578,0,4.6222,4.6324,4.6418,4.6486,4.6535,4.6644,4.6714,4.6735,4.6808,4.6913,4.6993,4.7111,4.7208,4.7403,4.7456,4.7568,4.7564,4.7675,4.7581,4.7576,4.7568,4.7563,4.7574,4.7693,4.7696,4.7699,4.7701,0,4.6474,4.6485,4.6585,4.6691,4.6773,4.6858,4.694,4.6996,4.703,4.7113,4.7235,4.731,4.7458,4.7578,4.7691,4.7742,4.7729,4.7729,4.776,4.776,4.7745,4.7757,4.7426,4.7722,4.772,4.7719,4.7717,4.7717,4.6652,4.6742,4.6822,4.6934,4.6997,4.7073,4.7163,4.7207,4.7309,4.743,4.7437,4.7571,4.7654,4.7805,4.7861,4.7968,4.7935,4.7979,4.7991,4.8002,4.8012,4.7726,4.7988,4.7987,4.7987,4.7986,4.7986,0,4.6905,4.6955,4.7058,4.7171,4.726,4.7235,4.7325,4.7401,4.7518,4.7596,4.7691,4.7833,4.7948,4.801,4.8125,4.8198,4.8195,4.8228,4.8225,4.8237,4.8033,4.7996,4.8229,4.8229,4.8229,4.8229,4.8229,4.8229,4.7048,4.7198,4.7219,4.7402,4.7451,4.7581,4.7634,4.7705,4.7768,4.7926,4.8021,4.8059,4.8132,4.8252,4.8358,4.8373,4.8417,4.8454,4.8467,4.8276,4.8251,4.8227,4.8193,4.8463,4.8464,4.8662,4.8663,4.8665]},{"header":{"parameterUnit":"m.s-1","parameterCategory":1,"la1":30.2991,"la2":30.254,"lo1":-89.0895,"lo2":-89.0444,"dy":0.0017,"dx":0.0017,"nx":28,"ny":28,"refTime":"2025-04-14T03:00:00:Z","depth":0,"parameterNumber":3,"parameterNumberName":"V-component_of_WINDS"},"data":[0,0,0,0,0,0,0,0,0,0,0,0,0,0,0,0,0,0,0,0,0,0,0,0,0,0,0,0,0,0,0,0,0,0,0,0,0,0,0,0,0,0,0,0,0,0,0,0,0,0,0,0,0,0,0,0,0,0,-1.3795,-1.3795,0,-1.3813,-1.3813,-1.3813,-1.3804,-1.3803,-1.3803,-1.3802,-1.3821,-1.3822,-1.3823,0,0,0,0,0,0,0,0,0,0,0,0,0,-1.3754,-1.3755,-1.3795,-1.3795,-1.3796,-1.3813,-1.3813,-1.3814,-1.3804,-1.3803,-1.3803,-1.3802,-1.3821,-1.3822,-1.3823,0,0,0,0,0,0,0,0,0,0,0,0,0,-1.3772,-1.3755,-1.3795,-1.3793,-1.3793,-1.3813,-1.3813,-1.3814,-1.3804,-1.3803,-1.3803,-1.3802,-1.3821,-1.3822,-1.3823,-1.3847,0,0,-1.3828,-1.3828,0,0,0,0,0,0,0,0,-1.3771,-1.3773,-1.3793,-1.3793,-1.3793,-1.3806,-1.3806,-1.3825,-1.3804,-1.38,-1.3802,-1.3802,-1.3817,-1.3818,-1.3823,-1.3848,-1.3849,-1.3828,-1.3829,-1.3829,-1.383,0,0,0,0,0,0,0,-1.377,-1.3773,-1.3802,-1.3793,-1.3793,-1.3792,-1.3793,-1.3809,-1.3812,-1.38,-1.38,-1.3802,-1.3817,-1.3822,-1.3824,-1.3849,-1.3828,-1.3829,-1.383,-1.3831,-1.3895,-1.3895,0,0,0,0,0,0,-1.3768,-1.3772,-1.3802,-1.3803,-1.378,-1.3793,-1.3795,-1.3802,-1.3812,-1.3813,-1.3802,-1.3801,-1.382,-1.3822,-1.3824,-1.3853,-1.3829,-1.3831,-1.3832,-1.3894,-1.3895,-1.3896,0,0,0,0,0,0,-1.3768,-1.3771,-1.3801,-1.3787,-1.3791,-1.3794,-1.3803,-1.3803,-1.3808,-1.3814,-1.3814,-1.3807,-1.3819,-1.3822,-1.3842,-1.3854,-1.3831,-1.3833,-1.3893,-1.3894,-1.3895,-1.3911,0,0,0,0,0,0,-1.3766,-1.3771,-1.378,-1.3787,-1.3792,-1.3818,-1.3804,-1.3804,-1.3811,-1.381,-1.3818,-1.3819,-1.3819,-1.384,-1.3843,-1.3855,-1.3834,-1.3892,-1.3893,-1.3895,-1.3909,-1.3912,-1.3915,0,0,0,0,0,-1.3765,-1.3783,-1.378,-1.3784,-1.3802,-1.3818,-1.3821,-1.382,-1.3812,-1.3821,-1.3824,-1.3819,-1.3852,-1.3842,-1.3845,-1.3858,-1.3891,-1.3893,-1.3895,-1.3908,-1.3912,-1.3915,0,0,0,0,0,0,-1.3776,-1.3784,-1.3781,-1.3802,-1.3809,-1.3817,-1.3828,-1.3824,-1.3834,-1.3833,-1.3832,-1.3834,-1.3854,-1.3858,-1.3846,-1.3882,-1.387,-1.3873,-1.3879,-1.3882,-1.3885,-1.3884,-1.3835,0,0,0,0,0,-1.3781,-1.3793,-1.3799,-1.3817,-1.3821,-1.3824,-1.3831,-1.383,-1.3838,-1.3841,-1.3846,-1.3854,-1.3867,-1.3875,-1.3886,-1.391,-1.3912,-1.3921,-1.3923,-1.3926,-1.3928,-1.3942,-1.3946,-1.3902,-1.3902,-1.3902,0,0,-1.3792,-1.3797,-1.3805,-1.382,-1.3826,-1.3839,-1.3827,-1.3841,-1.3851,-1.3843,-1.3862,-1.3866,-1.3875,-1.3897,-1.3907,-1.3901,-1.3941,-1.3928,-1.393,-1.3931,-1.3945,-1.3949,-1.3952,-1.3903,-1.3903,-1.3903,0,0,-1.3817,-1.3822,-1.3838,-1.3845,-1.3854,-1.3855,-1.3859,-1.3867,-1.387,-1.3888,-1.3884,-1.3896,-1.3917,-1.3924,-1.393,-1.396,-1.3955,-1.3964,-1.3979,-1.3993,-1.3996,-1.3999,-1.401,-1.4014,-1.3966,-1.3966,-1.3966,0,-1.3829,-1.3848,-1.3847,-1.3862,-1.3869,-1.3863,-1.388,-1.3886,-1.3898,-1.3904,-1.3897,-1.3924,-1.393,-1.3954,-1.3961,-1.3966,-1.3971,-1.3962,-1.3996,-1.3999,-1.4002,-1.4012,-1.4017,-1.3967,-1.3967,-1.3967,-1.3967,0,-1.3862,-1.3876,-1.3888,-1.39,-1.3908,-1.3924,-1.3926,-1.3935,-1.3933,-1.3936,-1.3956,-1.3963,-1.3976,-1.3982,-1.398,-1.4006,-1.4002,-1.3995,-1.3983,-1.4007,-1.4017,-1.4021,-1.3968,-1.3968,-1.3968,-1.3967,0,0,-1.3895,-1.3907,-1.3912,-1.3918,-1.3928,-1.3939,-1.3954,-1.3967,-1.3975,-1.3984,-1.3998,-1.4017,-1.4011,-1.4018,-1.4018,-1.403,-1.4054,-1.4022,-1.4022,-1.4028,-1.4084,-1.4089,-1.4093,-1.4051,-1.4052,-1.4053,-1.4083,0,-1.3922,-1.3949,-1.3949,-1.3974,-1.3987,-1.3983,-1.3997,-1.4005,-1.4008,-1.402,-1.4023,-1.4037,-1.4028,-1.4033,-1.4044,-1.4048,-1.4065,-1.4046,-1.4065,-1.4065,-1.4063,-1.4099,-1.4104,-1.4132,-1.4087,-1.4088,-1.4088,0,-1.3956,-1.3967,-1.3994,-1.4003,-1.4008,-1.4021,-1.4033,-1.4044,-1.4054,-1.4056,-1.4064,-1.4062,-1.4079,-1.4067,-1.4091,-1.4078,-1.4086,-1.4089,-1.409,-1.4092,-1.4078,-1.4102,-1.4141,-1.4146,-1.4094,-1.4094,-1.4093,0,-1.3979,-1.3999,-1.4018,-1.4024,-1.4034,-1.4044,-1.4049,-1.4057,-1.4066,-1.4077,-1.4082,-1.4095,-1.4103,-1.4113,-1.4115,-1.4106,-1.414,-1.4127,-1.4142,-1.4142,-1.4149,-1.4149,-1.4191,-1.4154,-1.4154,-1.4153,-1.4153,0,-1.4009,-1.4025,-1.4029,-1.404,-1.4059,-1.4059,-1.4078,-1.4083,-1.4091,-1.4104,-1.4101,-1.4113,-1.4115,-1.4128,-1.4129,-1.415,-1.4153,-1.4155,-1.4155,-1.4156,-1.4155,-1.4161,-1.4159,-1.4155,-1.4154,-1.4154,-1.4154,0,-1.4037,-1.4039,-1.406,-1.4069,-1.4071,-1.4085,-1.4093,-1.4105,-1.4108,-1.4124,-1.4128,-1.4133,-1.4149,-1.4152,-1.417,-1.4171,-1.4195,-1.4193,-1.4192,-1.4192,-1.4207,-1.4206,-1.4255,-1.4261,-1.4219,-1.4219,-1.422,0,-1.4056,-1.4069,-1.4079,-1.4088,-1.4093,-1.4107,-1.4115,-1.4116,-1.4125,-1.4138,-1.4148,-1.4163,-1.4175,-1.42,-1.4206,-1.422,-1.4219,-1.4235,-1.4221,-1.4221,-1.422,-1.422,-1.4221,-1.4238,-1.4238,-1.4239,-1.4239,0,-1.409,-1.4091,-1.4103,-1.4116,-1.4126,-1.4137,-1.4147,-1.4154,-1.4156,-1.4167,-1.4182,-1.4192,-1.4211,-1.4226,-1.424,-1.4246,-1.4244,-1.4243,-1.4248,-1.4248,-1.4247,-1.4249,-1.42,-1.4242,-1.4242,-1.4242,-1.4241,-1.4241,-1.4115,-1.4126,-1.4136,-1.415,-1.4157,-1.4167,-1.4178,-1.4183,-1.4196,-1.4211,-1.4211,-1.4229,-1.4239,-1.4258,-1.4265,-1.4279,-1.4274,-1.428,-1.4282,-1.4284,-1.4286,-1.4245,-1.4282,-1.4282,-1.4282,-1.4282,-1.4282,0,-1.415,-1.4156,-1.4168,-1.4182,-1.4194,-1.419,-1.4201,-1.421,-1.4226,-1.4235,-1.4248,-1.4266,-1.4281,-1.4289,-1.4304,-1.4314,-1.4313,-1.4318,-1.4317,-1.4319,-1.4289,-1.4284,-1.4318,-1.4318,-1.4318,-1.4318,-1.4318,-1.4318,-1.4169,-1.4189,-1.4191,-1.4215,-1.422,-1.4237,-1.4244,-1.4253,-1.4261,-1.4282,-1.4294,-1.4299,-1.4308,-1.4324,-1.4338,-1.434,-1.4346,-1.4352,-1.4353,-1.4325,-1.4321,-1.4317,-1.4313,-1.4353,-1.4353,-1.4382,-1.4383,-1.4383]}]]